![]() |
EMODnet Physics ERDDAP
Easier access to scientific data |
log in|
Brought to you by EMODnet Physics |
| Dataset Title: | NDBC - Collection of dew point temperature (DEWT) TimeSeries - IN SITU MultiPointTimeSeriesObservation
|
| Institution: | NDBC (Dataset ID: TS_DEWT_NDBC) |
| Information: | Summary
| License
| FGDC
| ISO 19115
| Metadata
| Background
| Subset
| Data Access Form
| Make a graph
|
| Name | Last modified | Size | Description | |
|---|---|---|---|---|
| Parent Directory | - | - | ||
| BUFN6_TS_DEWT_012005.nc | 27-Oct-2024 06:47 | 1263887 | ||
| BUFN6_TS_DEWT_012006.nc | 27-Oct-2024 06:47 | 430963 | ||
| BUFN6_TS_DEWT_012007.nc | 27-Oct-2024 06:47 | 427953 | ||
| BUFN6_TS_DEWT_012008.nc | 27-Oct-2024 06:47 | 426014 | ||
| BUFN6_TS_DEWT_012009.nc | 27-Oct-2024 06:47 | 426311 | ||
| BUFN6_TS_DEWT_012011.nc | 27-Oct-2024 06:47 | 429273 | ||
| BUFN6_TS_DEWT_012012.nc | 27-Oct-2024 06:47 | 429271 | ||
| BUFN6_TS_DEWT_012013.nc | 27-Oct-2024 06:47 | 429271 | ||
| BUFN6_TS_DEWT_012014.nc | 27-Oct-2024 06:47 | 429272 | ||
| BUFN6_TS_DEWT_012016.nc | 27-Oct-2024 06:48 | 422652 | ||
| BUFN6_TS_DEWT_012017.nc | 27-Oct-2024 06:48 | 429273 | ||
| BUFN6_TS_DEWT_012018.nc | 27-Oct-2024 06:48 | 426548 | ||
| BUFN6_TS_DEWT_012020.nc | 27-Oct-2024 06:48 | 429289 | ||
| BUFN6_TS_DEWT_012021.nc | 27-Oct-2024 06:48 | 429289 | ||
| BUFN6_TS_DEWT_012022.nc | 27-Oct-2024 06:48 | 429296 | ||
| BUFN6_TS_DEWT_012023.nc | 27-Oct-2024 06:48 | 423193 | ||
| BUFN6_TS_DEWT_012024.nc | 27-Oct-2024 06:48 | 429291 | ||
| BUFN6_TS_DEWT_012025.nc | 07-Feb-2025 12:05 | 429279 | ||
| BUFN6_TS_DEWT_012026.nc | 02-Feb-2026 17:43 | 429291 | ||
| BUFN6_TS_DEWT_022005.nc | 27-Oct-2024 06:48 | 429271 | ||
| BUFN6_TS_DEWT_022006.nc | 27-Oct-2024 06:48 | 429297 | ||
| BUFN6_TS_DEWT_022007.nc | 27-Oct-2024 06:48 | 429290 | ||
| BUFN6_TS_DEWT_022008.nc | 27-Oct-2024 06:48 | 429294 | ||
| BUFN6_TS_DEWT_022010.nc | 27-Oct-2024 06:48 | 429292 | ||
| BUFN6_TS_DEWT_022011.nc | 27-Oct-2024 06:49 | 429480 | ||
| BUFN6_TS_DEWT_022012.nc | 27-Oct-2024 06:49 | 429456 | ||
| BUFN6_TS_DEWT_022013.nc | 27-Oct-2024 06:49 | 429493 | ||
| BUFN6_TS_DEWT_022014.nc | 27-Oct-2024 06:49 | 429497 | ||
| BUFN6_TS_DEWT_022015.nc | 27-Oct-2024 06:49 | 429495 | ||
| BUFN6_TS_DEWT_022016.nc | 27-Oct-2024 06:49 | 429499 | ||
| BUFN6_TS_DEWT_022017.nc | 27-Oct-2024 06:49 | 429493 | ||
| BUFN6_TS_DEWT_022018.nc | 27-Oct-2024 06:49 | 429495 | ||
| BUFN6_TS_DEWT_022019.nc | 27-Oct-2024 06:49 | 429494 | ||
| BUFN6_TS_DEWT_022020.nc | 27-Oct-2024 06:49 | 429350 | ||
| BUFN6_TS_DEWT_022021.nc | 27-Oct-2024 06:49 | 429475 | ||
| BUFN6_TS_DEWT_022022.nc | 27-Oct-2024 06:49 | 1112770 | ||
| BUFN6_TS_DEWT_022023.nc | 27-Oct-2024 06:49 | 1112045 | ||
| BUFN6_TS_DEWT_022024.nc | 16-Sep-2024 16:51 | 1106501 | ||
| BUFN6_TS_DEWT_022025.nc | 01-Mar-2025 06:30 | 1078528 | ||
| BUFN6_TS_DEWT_022026.nc | 01-Mar-2026 07:22 | 1112281 | ||
| BUFN6_TS_DEWT_032005.nc | 27-Oct-2024 06:49 | 1029553 | ||
| BUFN6_TS_DEWT_032006.nc | 27-Oct-2024 06:49 | 426529 | ||
| BUFN6_TS_DEWT_032007.nc | 27-Oct-2024 06:49 | 426292 | ||
| BUFN6_TS_DEWT_032008.nc | 27-Oct-2024 06:50 | 426196 | ||
| BUFN6_TS_DEWT_032009.nc | 27-Oct-2024 06:50 | 426374 | ||
| BUFN6_TS_DEWT_032010.nc | 27-Oct-2024 06:50 | 429609 | ||
| BUFN6_TS_DEWT_032011.nc | 27-Oct-2024 06:50 | 429567 | ||
| BUFN6_TS_DEWT_032012.nc | 27-Oct-2024 06:50 | 429505 | ||
| BUFN6_TS_DEWT_032013.nc | 27-Oct-2024 06:50 | 429602 | ||
| BUFN6_TS_DEWT_032014.nc | 27-Oct-2024 06:50 | 428149 | ||
| BUFN6_TS_DEWT_032015.nc | 27-Oct-2024 06:50 | 429607 | ||
| BUFN6_TS_DEWT_032016.nc | 27-Oct-2024 06:50 | 429614 | ||
| BUFN6_TS_DEWT_032017.nc | 27-Oct-2024 06:50 | 429623 | ||
| BUFN6_TS_DEWT_032018.nc | 27-Oct-2024 06:50 | 429595 | ||
| BUFN6_TS_DEWT_032019.nc | 27-Oct-2024 06:50 | 429613 | ||
| BUFN6_TS_DEWT_032020.nc | 27-Oct-2024 06:50 | 429615 | ||
| BUFN6_TS_DEWT_032021.nc | 27-Oct-2024 06:50 | 429614 | ||
| BUFN6_TS_DEWT_032022.nc | 27-Oct-2024 06:50 | 429619 | ||
| BUFN6_TS_DEWT_032023.nc | 27-Oct-2024 06:51 | 429619 | ||
| BUFN6_TS_DEWT_032025.nc | 02-Apr-2025 05:17 | 429611 | ||
| BUFN6_TS_DEWT_032026.nc | 21-Mar-2026 08:53 | 429620 | ||
| BUFN6_TS_DEWT_042005.nc | 27-Oct-2024 06:51 | 429618 | ||
| BUFN6_TS_DEWT_042006.nc | 27-Oct-2024 06:51 | 429619 | ||
| BUFN6_TS_DEWT_042007.nc | 27-Oct-2024 06:51 | 429619 | ||
| BUFN6_TS_DEWT_042008.nc | 27-Oct-2024 06:51 | 429837 | ||
| BUFN6_TS_DEWT_042009.nc | 27-Oct-2024 06:51 | 429835 | ||
| BUFN6_TS_DEWT_042010.nc | 27-Oct-2024 06:51 | 429841 | ||
| BUFN6_TS_DEWT_042011.nc | 27-Oct-2024 06:51 | 429836 | ||
| BUFN6_TS_DEWT_042012.nc | 27-Oct-2024 06:51 | 429704 | ||
| BUFN6_TS_DEWT_042013.nc | 27-Oct-2024 06:51 | 429835 | ||
| BUFN6_TS_DEWT_042014.nc | 27-Oct-2024 06:51 | 429837 | ||
| BUFN6_TS_DEWT_042015.nc | 27-Oct-2024 06:51 | 429840 | ||
| BUFN6_TS_DEWT_042016.nc | 27-Oct-2024 06:51 | 429835 | ||
| BUFN6_TS_DEWT_042017.nc | 27-Oct-2024 06:51 | 429835 | ||
| BUFN6_TS_DEWT_042018.nc | 27-Oct-2024 06:51 | 429839 | ||
| BUFN6_TS_DEWT_042019.nc | 27-Oct-2024 06:51 | 1262625 | ||
| BUFN6_TS_DEWT_042020.nc | 27-Oct-2024 06:51 | 1263074 | ||
| BUFN6_TS_DEWT_042021.nc | 27-Oct-2024 06:51 | 1254550 | ||
| BUFN6_TS_DEWT_042023.nc | 27-Oct-2024 06:52 | 1264966 | ||
| BUFN6_TS_DEWT_042025.nc | 01-May-2025 05:22 | 426331 | ||
| BUFN6_TS_DEWT_052005.nc | 27-Oct-2024 06:52 | 426196 | ||
| BUFN6_TS_DEWT_052006.nc | 27-Oct-2024 06:52 | 429595 | ||
| BUFN6_TS_DEWT_052007.nc | 27-Oct-2024 06:52 | 424979 | ||
| BUFN6_TS_DEWT_052009.nc | 27-Oct-2024 06:52 | 429532 | ||
| BUFN6_TS_DEWT_052010.nc | 27-Oct-2024 06:52 | 429593 | ||
| BUFN6_TS_DEWT_052011.nc | 27-Oct-2024 06:52 | 426138 | ||
| BUFN6_TS_DEWT_052012.nc | 27-Oct-2024 06:52 | 429591 | ||
| BUFN6_TS_DEWT_052013.nc | 27-Oct-2024 06:52 | 429593 | ||
| BUFN6_TS_DEWT_052014.nc | 27-Oct-2024 06:52 | 429681 | ||
| BUFN6_TS_DEWT_052015.nc | 27-Oct-2024 06:52 | 429603 | ||
| BUFN6_TS_DEWT_052017.nc | 27-Oct-2024 06:53 | 429610 | ||
| BUFN6_TS_DEWT_052018.nc | 27-Oct-2024 06:53 | 429605 | ||
| BUFN6_TS_DEWT_052019.nc | 27-Oct-2024 06:53 | 429586 | ||
| BUFN6_TS_DEWT_052020.nc | 27-Oct-2024 06:53 | 429611 | ||
| BUFN6_TS_DEWT_052021.nc | 27-Oct-2024 06:53 | 429602 | ||
| BUFN6_TS_DEWT_052022.nc | 27-Oct-2024 06:53 | 429586 | ||
| BUFN6_TS_DEWT_052023.nc | 27-Oct-2024 06:53 | 429606 | ||
| BUFN6_TS_DEWT_052025.nc | 01-Jun-2025 05:22 | 429600 | ||
| BUFN6_TS_DEWT_062006.nc | 27-Oct-2024 06:53 | 425552 | ||
| BUFN6_TS_DEWT_062007.nc | 27-Oct-2024 06:53 | 425505 | ||
| BUFN6_TS_DEWT_062008.nc | 27-Oct-2024 06:53 | 428551 | ||
| BUFN6_TS_DEWT_062009.nc | 27-Oct-2024 06:53 | 428589 | ||
| BUFN6_TS_DEWT_062010.nc | 27-Oct-2024 06:53 | 428552 | ||
| BUFN6_TS_DEWT_062011.nc | 27-Oct-2024 06:53 | 428593 | ||
| BUFN6_TS_DEWT_062012.nc | 27-Oct-2024 06:53 | 425682 | ||
| BUFN6_TS_DEWT_062014.nc | 27-Oct-2024 06:54 | 428579 | ||
| BUFN6_TS_DEWT_062015.nc | 27-Oct-2024 06:54 | 428600 | ||
| BUFN6_TS_DEWT_062016.nc | 27-Oct-2024 06:54 | 428950 | ||
| BUFN6_TS_DEWT_062017.nc | 27-Oct-2024 06:54 | 428605 | ||
| BUFN6_TS_DEWT_062018.nc | 27-Oct-2024 06:54 | 428605 | ||
| BUFN6_TS_DEWT_062019.nc | 27-Oct-2024 06:54 | 428905 | ||
| BUFN6_TS_DEWT_062020.nc | 27-Oct-2024 06:54 | 421837 | ||
| BUFN6_TS_DEWT_062021.nc | 27-Oct-2024 06:54 | 428413 | ||
| BUFN6_TS_DEWT_062022.nc | 27-Oct-2024 06:54 | 428586 | ||
| BUFN6_TS_DEWT_062025.nc | 01-Jul-2025 06:31 | 428602 | ||
| BUFN6_TS_DEWT_072005.nc | 27-Oct-2024 06:54 | 428604 | ||
| BUFN6_TS_DEWT_072006.nc | 27-Oct-2024 06:54 | 426340 | ||
| BUFN6_TS_DEWT_072007.nc | 27-Oct-2024 06:54 | 426192 | ||
| BUFN6_TS_DEWT_072008.nc | 27-Oct-2024 06:54 | 429592 | ||
| BUFN6_TS_DEWT_072009.nc | 27-Oct-2024 06:54 | 429578 | ||
| BUFN6_TS_DEWT_072010.nc | 27-Oct-2024 06:55 | 429382 | ||
| BUFN6_TS_DEWT_072011.nc | 27-Oct-2024 06:55 | 429595 | ||
| BUFN6_TS_DEWT_072012.nc | 27-Oct-2024 06:55 | 426067 | ||
| BUFN6_TS_DEWT_072013.nc | 27-Oct-2024 06:55 | 429594 | ||
| BUFN6_TS_DEWT_072014.nc | 27-Oct-2024 06:55 | 429581 | ||
| BUFN6_TS_DEWT_072015.nc | 27-Oct-2024 06:55 | 429608 | ||
| BUFN6_TS_DEWT_072016.nc | 27-Oct-2024 06:55 | 429600 | ||
| BUFN6_TS_DEWT_072017.nc | 27-Oct-2024 06:55 | 429609 | ||
| BUFN6_TS_DEWT_072018.nc | 27-Oct-2024 06:55 | 429611 | ||
| BUFN6_TS_DEWT_072019.nc | 27-Oct-2024 06:55 | 429587 | ||
| BUFN6_TS_DEWT_072020.nc | 27-Oct-2024 06:55 | 429611 | ||
| BUFN6_TS_DEWT_072021.nc | 27-Oct-2024 06:55 | 429604 | ||
| BUFN6_TS_DEWT_072022.nc | 27-Oct-2024 06:55 | 429606 | ||
| BUFN6_TS_DEWT_072023.nc | 27-Oct-2024 06:55 | 429612 | ||
| BUFN6_TS_DEWT_072025.nc | 01-Aug-2025 06:45 | 422939 | ||
| BUFN6_TS_DEWT_082005.nc | 27-Oct-2024 06:55 | 426112 | ||
| BUFN6_TS_DEWT_082006.nc | 27-Oct-2024 06:55 | 425970 | ||
| BUFN6_TS_DEWT_082007.nc | 27-Oct-2024 06:55 | 429253 | ||
| BUFN6_TS_DEWT_082008.nc | 27-Oct-2024 06:56 | 429262 | ||
| BUFN6_TS_DEWT_082009.nc | 27-Oct-2024 06:56 | 429243 | ||
| BUFN6_TS_DEWT_082011.nc | 27-Oct-2024 06:56 | 425894 | ||
| BUFN6_TS_DEWT_082012.nc | 27-Oct-2024 06:56 | 429261 | ||
| BUFN6_TS_DEWT_082013.nc | 27-Oct-2024 06:56 | 429261 | ||
| BUFN6_TS_DEWT_082014.nc | 27-Oct-2024 06:56 | 429273 | ||
| BUFN6_TS_DEWT_082016.nc | 27-Oct-2024 06:56 | 429231 | ||
| BUFN6_TS_DEWT_082017.nc | 27-Oct-2024 06:56 | 429277 | ||
| BUFN6_TS_DEWT_082018.nc | 27-Oct-2024 06:56 | 429280 | ||
| BUFN6_TS_DEWT_082019.nc | 27-Oct-2024 06:56 | 429279 | ||
| BUFN6_TS_DEWT_082020.nc | 27-Oct-2024 06:56 | 429285 | ||
| BUFN6_TS_DEWT_082021.nc | 27-Oct-2024 06:56 | 429273 | ||
| BUFN6_TS_DEWT_082022.nc | 27-Oct-2024 06:56 | 429275 | ||
| BUFN6_TS_DEWT_082023.nc | 27-Oct-2024 06:56 | 421294 | ||
| BUFN6_TS_DEWT_082025.nc | 01-Sep-2025 06:21 | 426413 | ||
| BUFN6_TS_DEWT_092005.nc | 27-Oct-2024 06:56 | 426197 | ||
| BUFN6_TS_DEWT_092006.nc | 27-Oct-2024 06:56 | 429595 | ||
| BUFN6_TS_DEWT_092007.nc | 27-Oct-2024 06:57 | 428791 | ||
| BUFN6_TS_DEWT_092008.nc | 27-Oct-2024 06:57 | 429591 | ||
| BUFN6_TS_DEWT_092009.nc | 27-Oct-2024 06:57 | 429592 | ||
| BUFN6_TS_DEWT_092010.nc | 27-Oct-2024 06:57 | 426142 | ||
| BUFN6_TS_DEWT_092011.nc | 27-Oct-2024 06:57 | 429594 | ||
| BUFN6_TS_DEWT_092012.nc | 27-Oct-2024 06:57 | 429577 | ||
| BUFN6_TS_DEWT_092013.nc | 27-Oct-2024 06:57 | 429585 | ||
| BUFN6_TS_DEWT_092014.nc | 27-Oct-2024 06:57 | 429600 | ||
| BUFN6_TS_DEWT_092015.nc | 27-Oct-2024 06:57 | 429518 | ||
| BUFN6_TS_DEWT_092017.nc | 27-Oct-2024 06:57 | 429582 | ||
| BUFN6_TS_DEWT_092018.nc | 27-Oct-2024 06:57 | 429586 | ||
| BUFN6_TS_DEWT_092019.nc | 27-Oct-2024 06:57 | 429600 | ||
| BUFN6_TS_DEWT_092020.nc | 27-Oct-2024 06:57 | 429613 | ||
| BUFN6_TS_DEWT_092021.nc | 27-Oct-2024 06:57 | 429603 | ||
| BUFN6_TS_DEWT_092022.nc | 27-Oct-2024 06:57 | 429283 | ||
| BUFN6_TS_DEWT_092023.nc | 27-Oct-2024 06:57 | 425006 | ||
| BUFN6_TS_DEWT_092025.nc | 01-Oct-2025 06:15 | 426065 | ||
| BUFN6_TS_DEWT_102004.nc | 27-Oct-2024 06:58 | 425942 | ||
| BUFN6_TS_DEWT_102005.nc | 27-Oct-2024 06:58 | 429250 | ||
| BUFN6_TS_DEWT_102006.nc | 27-Oct-2024 06:58 | 429257 | ||
| BUFN6_TS_DEWT_102007.nc | 27-Oct-2024 06:58 | 429259 | ||
| BUFN6_TS_DEWT_102008.nc | 27-Oct-2024 06:58 | 429014 | ||
| BUFN6_TS_DEWT_102009.nc | 27-Oct-2024 06:58 | 429260 | ||
| BUFN6_TS_DEWT_102010.nc | 27-Oct-2024 06:58 | 429264 | ||
| BUFN6_TS_DEWT_102011.nc | 27-Oct-2024 06:58 | 429276 | ||
| BUFN6_TS_DEWT_102012.nc | 27-Oct-2024 06:58 | 429278 | ||
| BUFN6_TS_DEWT_102013.nc | 27-Oct-2024 06:58 | 429228 | ||
| BUFN6_TS_DEWT_102014.nc | 27-Oct-2024 06:58 | 429280 | ||
| BUFN6_TS_DEWT_102015.nc | 27-Oct-2024 06:58 | 429262 | ||
| BUFN6_TS_DEWT_102016.nc | 27-Oct-2024 06:58 | 429284 | ||
| BUFN6_TS_DEWT_102017.nc | 27-Oct-2024 06:58 | 429270 | ||
| BUFN6_TS_DEWT_102018.nc | 27-Oct-2024 06:58 | 429279 | ||
| BUFN6_TS_DEWT_102019.nc | 27-Oct-2024 06:59 | 429286 | ||
| BUFN6_TS_DEWT_102020.nc | 27-Oct-2024 06:59 | 429281 | ||
| BUFN6_TS_DEWT_102021.nc | 27-Oct-2024 06:59 | 429274 | ||
| BUFN6_TS_DEWT_102022.nc | 27-Oct-2024 06:59 | 425495 | ||
| BUFN6_TS_DEWT_102023.nc | 27-Oct-2024 06:59 | 426658 | ||
| BUFN6_TS_DEWT_102025.nc | 01-Nov-2025 07:05 | 428506 | ||
| BUFN6_TS_DEWT_112004.nc | 27-Oct-2024 06:59 | 429598 | ||
| BUFN6_TS_DEWT_112005.nc | 27-Oct-2024 06:59 | 424378 | ||
| BUFN6_TS_DEWT_112006.nc | 27-Oct-2024 06:59 | 429595 | ||
| BUFN6_TS_DEWT_112007.nc | 27-Oct-2024 06:59 | 429588 | ||
| BUFN6_TS_DEWT_112008.nc | 27-Oct-2024 06:59 | 429590 | ||
| BUFN6_TS_DEWT_112009.nc | 27-Oct-2024 06:59 | 429593 | ||
| BUFN6_TS_DEWT_112010.nc | 27-Oct-2024 06:59 | 429587 | ||
| BUFN6_TS_DEWT_112011.nc | 27-Oct-2024 06:59 | 429599 | ||
| BUFN6_TS_DEWT_112012.nc | 27-Oct-2024 06:59 | 429605 | ||
| BUFN6_TS_DEWT_112013.nc | 27-Oct-2024 06:59 | 425355 | ||
| BUFN6_TS_DEWT_112014.nc | 27-Oct-2024 06:59 | 429561 | ||
| BUFN6_TS_DEWT_112015.nc | 27-Oct-2024 06:59 | 429601 | ||
| BUFN6_TS_DEWT_112016.nc | 27-Oct-2024 07:00 | 429608 | ||
| BUFN6_TS_DEWT_112017.nc | 27-Oct-2024 07:00 | 429600 | ||
| BUFN6_TS_DEWT_112018.nc | 27-Oct-2024 07:00 | 429592 | ||
| BUFN6_TS_DEWT_112019.nc | 27-Oct-2024 07:00 | 429601 | ||
| BUFN6_TS_DEWT_112020.nc | 27-Oct-2024 07:00 | 429600 | ||
| BUFN6_TS_DEWT_112021.nc | 27-Oct-2024 07:00 | 429611 | ||
| BUFN6_TS_DEWT_112022.nc | 27-Oct-2024 07:00 | 429612 | ||
| BUFN6_TS_DEWT_112023.nc | 27-Oct-2024 07:00 | 426782 | ||
| BUFN6_TS_DEWT_112024.nc | 17-Jan-2025 17:04 | 426305 | ||
| BUFN6_TS_DEWT_112025.nc | 01-Dec-2025 05:05 | 429481 | ||
| BUFN6_TS_DEWT_122004.nc | 27-Oct-2024 07:00 | 429568 | ||
| BUFN6_TS_DEWT_122005.nc | 27-Oct-2024 07:00 | 429595 | ||
| BUFN6_TS_DEWT_122006.nc | 27-Oct-2024 07:00 | 425261 | ||
| BUFN6_TS_DEWT_122007.nc | 27-Oct-2024 07:00 | 429596 | ||
| BUFN6_TS_DEWT_122008.nc | 27-Oct-2024 07:00 | 429544 | ||
| BUFN6_TS_DEWT_122009.nc | 27-Oct-2024 07:00 | 429593 | ||
| BUFN6_TS_DEWT_122010.nc | 27-Oct-2024 07:00 | 429588 | ||
| BUFN6_TS_DEWT_122011.nc | 27-Oct-2024 07:01 | 429591 | ||
| BUFN6_TS_DEWT_122012.nc | 27-Oct-2024 07:01 | 429609 | ||
| BUFN6_TS_DEWT_122013.nc | 27-Oct-2024 07:01 | 429601 | ||
| BUFN6_TS_DEWT_122014.nc | 27-Oct-2024 07:01 | 429605 | ||
| BUFN6_TS_DEWT_122015.nc | 27-Oct-2024 07:01 | 429606 | ||
| BUFN6_TS_DEWT_122016.nc | 27-Oct-2024 07:01 | 429584 | ||
| BUFN6_TS_DEWT_122017.nc | 27-Oct-2024 07:01 | 429608 | ||
| BUFN6_TS_DEWT_122018.nc | 27-Oct-2024 07:01 | 427465 | ||
| BUFN6_TS_DEWT_122019.nc | 27-Oct-2024 07:01 | 429599 | ||
| BUFN6_TS_DEWT_122020.nc | 27-Oct-2024 07:01 | 429600 | ||
| BUFN6_TS_DEWT_122021.nc | 27-Oct-2024 07:01 | 429607 | ||
| BUFN6_TS_DEWT_122022.nc | 27-Oct-2024 07:01 | 429603 | ||
| BUFN6_TS_DEWT_122023.nc | 27-Oct-2024 07:01 | 429600 | ||
| BUFN6_TS_DEWT_122024.nc | 22-Jan-2025 17:58 | 422615 | ||
| BUFN6_TS_DEWT_122025.nc | 01-Jan-2026 06:02 | 426053 | ||